This is the latest recevied weather packets stored in our database for station/object NE8U. If no packets are shown the sender has not sent any weather packets the latest 10 day(s).
| Time | Temp. | Humidity | Pressure | Rain* | Wind** | Luminosity | Snow |
|---|---|---|---|---|---|---|---|
| 1777310382 | 22.22° C | 26% | 1015.6 hPa | 0 mm | - | 824 W/m² | - |
| 1777310079 | 22.78° C | 26% | 1015.7 hPa | 0 mm | - | 820 W/m² | - |
| 1777309778 | 22.78° C | 27% | 1015.9 hPa | 0 mm | - | 801 W/m² | - |
| 1777309475 | 22.22° C | 27% | 1015.7 hPa | 0 mm | - | 807 W/m² | - |
| 1777309171 | 21.67° C | 28% | 1015.7 hPa | 0 mm | - | 835 W/m² | - |
| 1777308870 | 21.11° C | 28% | 1015.8 hPa | 0 mm | - | 844 W/m² | - |
| 1777308564 | 22.22° C | 29% | 1015.7 hPa | 0 mm | - | 867 W/m² | - |
| 1777308261 | 22.22° C | 29% | 1015.9 hPa | 0 mm | - | 862 W/m² | - |
| 1777307956 | 21.67° C | 28% | 1015.7 hPa | 0 mm | - | 854 W/m² | - |
| 1777307654 | 21.11° C | 31% | 1015.7 hPa | 0 mm | - | 864 W/m² | - |
| 1777307351 | 21.11° C | 30% | 1016 hPa | 0 mm | - | 875 W/m² | - |
| 1777307048 | 21.67° C | 29% | 1015.8 hPa | 0 mm | - | 833 W/m² | - |
| 1777306746 | 20.56° C | 30% | 1015.8 hPa | 0 mm | - | 791 W/m² | - |
| 1777306443 | 20° C | 31% | 1015.8 hPa | 0 mm | - | 721 W/m² | - |
| 1777306138 | 20.56° C | 31% | 1015.9 hPa | 0 mm | - | 675 W/m² | - |
| 1777305833 | 20.56° C | 30% | 1015.8 hPa | 0 mm | - | 634 W/m² | - |
| 1777305529 | 20.56° C | 30% | 1015.8 hPa | 0 mm | - | 632 W/m² | - |
| 1777305225 | 20° C | 31% | 1016.2 hPa | 0 mm | - | 664 W/m² | - |
| 1777304920 | 20° C | 31% | 1016 hPa | 0 mm | - | 649 W/m² | - |
| 1777304617 | 20.56° C | 32% | 1015.8 hPa | 0 mm | - | 599 W/m² | - |
| 1777304313 | 20° C | 31% | 1015.7 hPa | 0 mm | - | 578 W/m² | - |
| 1777304011 | 20° C | 32% | 1015.7 hPa | 0 mm | - | 563 W/m² | - |
| 1777303707 | 20° C | 31% | 1015.8 hPa | 0 mm | - | 553 W/m² | - |
| 1777303404 | 20° C | 31% | 1015.7 hPa | 0 mm | - | 511 W/m² | - |
| 1777303102 | 20° C | 32% | 1015.8 hPa | 0 mm | - | 441 W/m² | - |
* Rain latest hour (hover to see other rain measurements)
** Current wind speed in m/s (hover to see current wind gust speed)